Find Zhongxing 1E

NORAD ID: 53813 Int'l Des: 2022-112 Owner: ZLZB Country: CN operational
HEOCIRCULARGSOGEO

当前视图

正在加载3D地球...

About Zhongxing 1E

Zhongxing 1E (NORAD 53813) is a satellite launched Sep 13, 2022 by ZLZB of CN. It operates in HEO, CIRCULAR, GSO, GEO orbit with a mass of 5000.00 kg.

即将过境

Passes for default location (London). Set your location on the main map for personalized predictions.

高度历史

Loading altitude history...

两行轨道根数

1 53813U 22112A 26194.86224890 -.00000155 00000-0 00000+0 0 9990
2 53813 0.0677 229.8558 0000940 49.7451 43.9310 1.00272592 14119
Epoch: Jul 13, 2026 • Age: 9 hours

当前状态

高度 35789.8 km
远地点 / 近地点 N/A
速度 3.07 km/s
星下点 -0.01°S, 81.4°E
发射日期 Sep 13, 2022
运行时间 3.8 years
类型 other

技术详情

分类 Payload
质量 5000.00 kg
干质量 2500.00 kg
总质量 5000.00 kg
长度 5.00 m
直径 2.50 m
跨度 30.00 m
形状 Box + 2 Pan
制造商 CAST
平台类型 DFH-4
阶段状态 In Orbit
所有者/国家 ZLZB/CN

Most Searched